FW4448 Weather Reports


Display with metric or nautical units.
time (UTC)temp
F
wind
direction
speed
MPH
gust
MPH
rain 1hr
in
rain 24hr
in
rain mn
in
humidity
%
barometer
mb
20260503034010 47 227 0.0 0.0 0.00 0.00 0.00 97 1009.9
20260503033505 47 227 0.0 0.0 0.00 0.00 0.00 97 1010.0
20260503033016 47 227 0.0 0.0 0.00 0.00 0.00 97 1010.0
20260503032505 46 227 0.0 0.0 0.00 0.00 0.00 97 1009.8
20260503032010 46 227 0.0 0.0 0.00 0.00 0.00 97 1010.0
20260503031517 46 227 0.0 1.0 0.00 0.00 0.00 97 1010.2
20260503031003 46 227 0.0 1.0 0.00 0.00 0.00 97 1010.3
20260503030508 47 227 0.0 1.0 0.00 0.00 0.00 97 1010.4
20260503030018 47 227 0.0 1.0 0.00 0.00 0.00 97 1010.4
20260503030003 47 225 0.0 1.0 0.00 0.00 0.00 97 1011.0
20260503025512 47 228 0.0 1.0 0.00 0.00 0.00 97 1010.5
20260503025010 47 227 0.0 1.0 0.00 0.00 0.00 97 1010.4
20260503024524 47 227 0.0 0.0 0.00 0.00 0.00 97 1010.3
20260503024009 47 227 0.0 1.0 0.00 0.00 0.00 97 1010.3
20260503023508 47 227 0.0 1.0 0.00 0.00 0.00 97 1010.3
20260503023016 47 227 0.0 0.0 0.00 0.00 0.00 97 1010.3
20260503022506 47 227 0.0 0.0 0.00 0.00 0.00 97 1010.3
20260503022010 47 227 0.0 1.0 0.00 0.00 0.00 97 1010.3
20260503021523 47 227 0.0 1.0 0.00 0.00 0.00 97 1010.4
20260503021016 47 227 0.0 1.0 0.00 0.00 0.00 97 1010.4
20260503020510 47 227 0.0 1.0 0.00 0.00 0.00 97 1010.4
20260503020028 47 227 0.0 1.0 0.00 0.00 0.00 97 1010.3
20260503020003 47 225 0.0 1.0 0.00 0.00 0.00 97 1010.8
20260503015509 47 227 0.0 1.0 0.00 0.00 0.00 97 1010.4
20260503015012 48 227 0.0 0.0 0.00 0.00 0.00 97 1010.5
20260503014520 48 227 0.0 0.0 0.00 0.00 0.00 97 1010.4
20260503014008 48 227 0.0 0.0 0.00 0.00 0.00 97 1010.5
20260503013505 48 227 0.0 1.0 0.00 0.00 0.00 97 1010.4
20260503013018 48 227 0.0 1.0 0.00 0.00 0.00 97 1010.4
20260503012507 48 227 0.0 1.0 0.00 0.00 0.00 97 1010.3
20260503012010 48 227 0.0 1.0 0.00 0.00 0.00 97 1010.4
20260503011524 48 227 0.0 1.0 0.00 0.00 0.00 97 1010.4
20260503011503 48 225 0.0 1.0 0.00 0.00 0.00 98 1010.9
20260503011007 48 227 0.0 1.0 0.00 0.00 0.00 97 1010.4
20260503010511 48 227 0.0 1.0 0.00 0.00 0.00 97 1010.4
20260503010026 48 227 0.0 0.0 0.00 0.00 0.00 97 1010.3
20260503010003 48 225 0.0 0.0 0.00 0.00 0.00 97 1010.9
20260503005509 49 227 0.0 2.0 0.00 0.00 0.00 97 1010.3
20260503005010 49 227 0.0 2.0 0.00 0.00 0.00 97 1010.3
20260503004519 49 227 0.0 1.0 0.00 0.00 0.00 97 1010.3
20260503004008 49 227 0.0 1.0 0.00 0.00 0.00 97 1010.3
20260503003511 49 227 0.0 1.0 0.00 0.00 0.00 97 1010.2
20260503003029 49 227 0.0 1.0 0.00 0.00 0.00 97 1010.2
20260503002506 49 227 0.0 1.0 0.00 0.00 0.00 97 1010.2
20260503002007 49 227 0.0 2.0 0.00 0.00 0.00 97 1010.1
20260503001526 49 227 0.0 2.0 0.00 0.00 0.00 97 1010.1
20260503001006 49 227 0.0 3.0 0.00 0.00 0.00 98 1010.1
20260503000506 49 227 0.0 3.0 0.00 0.00 0.00 98 1010.0
20260503000035 49 232 0.0 4.0 0.00 0.00 0.00 98 1010.0
20260503000003 49 230 0.0 4.0 0.00 0.00 0.00 98 1010.7
20260502235507 50 232 1.0 4.0 0.00 0.00 0.00 98 1010.1
20260502235008 50 252 1.0 4.0 0.00 0.00 0.00 98 1010.1
20260502234546 50 252 0.0 4.0 0.00 0.00 0.00 98 1010.1
20260502234006 50 245 0.0 2.0 0.00 0.00 0.00 98 1010.1
20260502233509 50 245 0.0 3.0 0.00 0.00 0.00 98 1010.1
20260502233022 50 245 1.0 3.0 0.00 0.00 0.00 98 1010.0
20260502232507 50 224 1.0 4.0 0.00 0.00 0.00 98 1009.9
20260502232008 50 221 0.0 4.0 0.00 0.00 0.00 98 1010.0
20260502231529 50 220 0.0 3.0 0.00 0.00 0.00 98 1009.9
20260502231008 50 207 0.0 4.0 0.00 0.00 0.00 98 1010.1
20260502230507 50 203 2.0 4.0 0.00 0.00 0.00 98 1010.1
20260502230025 50 233 0.0 4.0 0.00 0.00 0.00 98 1010.1
20260502230003 50 232 0.0 4.0 0.00 0.00 0.00 98 1010.7
20260502225508 50 233 1.0 4.0 0.00 0.00 0.00 98 1010.1
20260502225007 50 278 0.0 2.0 0.00 0.00 0.00 98 1010.1
20260502224527 50 278 0.0 2.0 0.00 0.00 0.00 98 1010.1
20260502224008 50 278 0.0 3.0 0.00 0.00 0.00 98 1010.1
20260502223505 50 278 1.0 3.0 0.00 0.00 0.00 98 1010.1
20260502223035 50 219 0.0 2.0 0.00 0.00 0.00 98 1010.1
20260502222508 50 219 0.0 2.0 0.00 0.00 0.00 98 1010.0
20260502222007 50 219 0.0 3.0 0.00 0.00 0.00 98 1010.0
20260502221520 50 217 1.0 3.0 0.00 0.00 0.00 98 1010.0
20260502221013 50 179 0.0 3.0 0.00 0.00 0.00 98 1010.0
20260502220510 50 179 1.0 3.0 0.00 0.00 0.00 98 1010.0
20260502220024 50 181 0.0 3.0 0.00 0.00 0.00 98 1010.0
20260502220010 50 181 0.0 3.0 0.00 0.00 0.00 99 1010.5
20260502215507 50 179 0.0 3.0 0.00 0.00 0.00 98 1010.1
20260502215008 50 180 0.0 2.0 0.00 0.00 0.00 98 1010.1
20260502214519 50 180 0.0 2.0 0.00 0.00 0.00 98 1010.2
20260502214502 50 180 0.0 2.0 0.00 0.00 0.00 98 1010.6
20260502214011 50 179 0.0 3.0 0.00 0.00 0.00 98 1010.2
20260502213508 50 179 1.0 3.0 0.00 0.00 0.00 98 1010.2
20260502213024 49 176 0.0 3.0 0.00 0.00 0.00 98 1010.1
20260502212509 49 176 0.0 3.0 0.00 0.00 0.00 98 1010.1
20260502212011 49 167 0.0 2.0 0.00 0.00 0.00 98 1010.2
20260502211533 50 167 0.0 2.0 0.00 0.00 0.00 98 1010.3
20260502211007 50 154 0.0 4.0 0.00 0.00 0.00 98 1010.3
20260502210511 50 154 1.0 4.0 0.00 0.00 0.00 98 1010.2
20260502210023 50 169 1.0 4.0 0.00 0.00 0.00 98 1010.1
20260502210002 50 170 2.0 5.0 0.00 0.00 0.00 98 1010.6
20260502205513 50 172 1.0 5.0 0.00 0.00 0.00 98 1010.2
20260502205009 50 261 1.0 5.0 0.00 0.00 0.00 98 1010.2
20260502204530 50 212 2.0 5.0 0.00 0.00 0.00 98 1010.1
20260502204008 50 169 1.0 4.0 0.00 0.00 0.00 98 1010.1
20260502203510 50 236 0.0 3.0 0.00 0.00 0.00 98 1010.0
20260502203041 50 236 0.0 3.0 0.00 0.00 0.00 98 1010.1
20260502202506 50 236 1.0 3.0 0.00 0.00 0.00 98 1010.2
20260502202010 50 236 0.0 3.0 0.00 0.00 0.00 98 1010.2
20260502201527 50 236 1.0 3.0 0.00 0.00 0.00 98 1010.3
20260502201011 50 236 0.0 3.0 0.00 0.00 0.00 98 1010.4
20260502200510 50 236 0.0 3.0 0.00 0.00 0.00 98 1010.5
20260502200028 50 280 0.0 2.0 0.00 0.00 0.00 98 1010.5
20260502200003 50 276 0.0 2.0 0.00 0.00 0.00 99 1011.1
20260502195508 50 281 0.0 2.0 0.00 0.00 0.00 98 1010.5
20260502195008 50 280 0.0 3.0 0.00 0.00 0.00 98 1010.8
20260502194527 50 280 0.0 3.0 0.00 0.00 0.00 98 1010.7
20260502194009 50 281 1.0 5.0 0.00 0.00 0.00 98 1010.7
20260502193509 50 281 2.0 5.0 0.00 0.00 0.00 98 1010.7
20260502193028 50 226 1.0 5.0 0.00 0.00 0.00 98 1010.8
20260502192505 50 210 0.0 5.0 0.00 0.00 0.00 98 1010.7
20260502192003 50 217 2.0 5.0 0.00 0.00 0.00 98 1010.9
20260502191511 50 203 0.0 3.0 0.00 0.00 0.00 98 1010.9
20260502191004 50 203 0.0 5.0 0.00 0.00 0.00 98 1010.9
20260502190507 50 208 2.0 7.0 0.00 0.00 0.00 97 1010.9
20260502190020 50 219 1.0 7.0 0.00 0.00 0.00 97 1011.1
20260502190002 50 218 1.0 7.0 0.00 0.00 0.00 98 1011.7
20260502185504 50 181 1.0 4.0 0.00 0.00 0.00 97 1011.2
20260502185008 50 237 1.0 5.0 0.00 0.00 0.00 97 1011.3
20260502184523 50 220 2.0 7.0 0.00 0.00 0.00 97 1011.3
20260502184009 50 226 3.0 7.0 0.00 0.00 0.00 97 1011.3
20260502183503 50 210 2.0 5.0 0.00 0.00 0.00 97 1011.3
20260502183008 50 241 1.0 5.0 0.00 0.00 0.00 97 1011.4
20260502182506 50 175 0.0 5.0 0.00 0.00 0.00 97 1011.3
20260502182003 50 181 1.0 7.0 0.00 0.00 0.00 97 1011.3
20260502181509 50 235 0.0 7.0 0.00 0.00 0.00 97 1011.4
20260502181003 50 150 1.0 4.0 0.00 0.00 0.00 97 1011.4
20260502180503 50 203 0.0 6.0 0.00 0.00 0.00 97 1011.5
20260502170507 50 266 1.0 7.0 0.00 0.00 0.00 96 1011.6
20260502164010 50 213 0.0 7.0 0.00 0.00 0.00 96 1011.5
20260502163504 50 259 4.0 7.0 0.00 0.00 0.00 96 1011.6
20260502163032 50 203 2.0 7.0 0.00 0.00 0.00 96 1011.6
20260502162505 50 243 3.0 7.0 0.00 0.00 0.00 96 1011.7
20260502162011 50 245 0.0 7.0 0.00 0.00 0.00 96 1011.7
20260502161526 50 215 3.0 7.0 0.00 0.00 0.00 95 1011.7
20260502161006 50 237 1.0 6.0 0.00 0.00 0.00 95 1011.6
20260502160511 50 281 4.0 7.0 0.00 0.00 0.00 95 1011.6
20260502152008 51 246 4.0 11.0 0.00 0.00 0.00 95 1012.0
20260502151521 51 257 3.0 11.0 0.00 0.00 0.00 94 1012.1
20260502151007 51 206 3.0 11.0 0.00 0.00 0.00 94 1012.1
20260502150509 51 206 5.0 9.0 0.00 0.00 0.00 94 1012.1
20260502130507 52 207 2.0 6.0 0.00 0.00 0.00 93 1012.1
20260502123507 51 292 2.0 7.0 0.00 0.00 0.00 95 1012.5
20260502123031 51 267 2.0 6.0 0.00 0.00 0.00 95 1012.4
20260502122506 51 223 3.0 7.0 0.00 0.00 0.00 95 1012.4
20260502122011 50 258 3.0 9.0 0.00 0.00 0.00 95 1012.5
20260502121527 50 225 3.0 9.0 0.00 0.00 0.00 96 1012.5
20260502121007 50 207 2.0 7.0 0.00 0.00 0.00 96 1012.6
20260502120514 50 294 1.0 7.0 0.00 0.00 0.00 96 1012.5
20260502115508 49 318 1.0 8.0 0.00 0.00 0.00 96 1012.5
20260502115008 49 283 2.0 8.0 0.00 0.00 0.00 97 1012.4
20260502114517 49 321 2.0 7.0 0.00 0.00 0.00 97 1012.4
20260502114006 49 193 4.0 7.0 0.00 0.00 0.00 97 1012.3
20260502113508 49 253 2.0 8.0 0.00 0.00 0.00 97 1012.2
20260502113029 49 234 3.0 8.0 0.00 0.00 0.00 97 1012.1
20260502112507 49 178 2.0 7.0 0.00 0.00 0.00 97 1012.2
20260502112007 49 228 2.0 9.0 0.00 0.00 0.00 97 1012.2
20260502111524 49 251 3.0 9.0 0.00 0.00 0.00 97 1012.2
20260502111009 48 217 2.0 9.0 0.00 0.00 0.00 98 1012.3
20260502110510 48 243 5.0 9.0 0.00 0.00 0.00 98 1012.1
20260502110028 48 214 3.0 9.0 0.00 0.00 0.00 97 1012.1
20260502110003 48 213 3.0 10.0 0.00 0.00 0.00 98 1012.7
20260502105509 48 223 4.0 9.0 0.00 0.00 0.00 97 1012.0
20260502105005 48 226 2.0 10.0 0.00 0.00 0.00 97 1012.0
20260502104518 48 228 2.0 10.0 0.00 0.00 0.00 97 1012.0
20260502104007 48 256 2.0 8.0 0.00 0.00 0.00 97 1011.9
20260502103507 47 245 2.0 9.0 0.00 0.00 0.00 97 1012.0
20260502103023 47 262 2.0 9.0 0.00 0.00 0.00 97 1012.1
20260502102504 47 251 3.0 11.0 0.00 0.00 0.00 97 1012.0
20260502102004 47 275 1.0 11.0 0.00 0.00 0.00 97 1012.2
20260502101509 47 255 4.0 8.0 0.00 0.00 0.00 97 1012.2
20260502101003 47 273 2.0 9.0 0.00 0.00 0.00 97 1012.0
20260502100503 47 236 4.0 9.0 0.00 0.00 0.00 97 1012.1
20260502091508 47 252 2.0 8.0 0.00 0.00 0.00 95 1011.8
20260502091005 47 247 3.0 8.0 0.00 0.00 0.00 95 1011.9
20260502090503 47 231 2.0 9.0 0.00 0.00 0.00 95 1012.0
20260502071512 48 265 3.0 11.0 0.00 0.00 0.00 93 1012.1
20260502071003 48 278 3.0 9.0 0.00 0.00 0.00 93 1012.0
20260502070505 48 322 3.0 11.0 0.00 0.00 0.00 93 1011.8
20260502070016 48 243 4.0 13.0 0.00 0.00 0.00 92 1012.0
20260502070001 48 241 4.0 12.0 0.00 0.00 0.00 93 1012.5
20260502065504 48 288 4.0 13.0 0.00 0.00 0.00 92 1012.1
20260502065003 48 293 4.0 11.0 0.00 0.00 0.00 92 1012.3
20260502064510 48 257 3.0 11.0 0.00 0.00 0.00 92 1012.3
20260502064004 48 258 4.0 12.0 0.00 0.00 0.00 92 1012.3
20260502063503 48 248 5.0 12.0 0.00 0.00 0.00 92 1012.4
20260502063008 48 250 3.0 10.0 0.00 0.00 0.00 92 1012.4
20260502062503 48 267 3.0 11.0 0.00 0.00 0.00 91 1012.4
20260502062002 48 243 6.0 11.0 0.00 0.00 0.00 91 1012.3
20260502061510 48 221 2.0 10.0 0.00 0.00 0.00 91 1012.3
20260502061003 48 216 2.0 10.0 0.00 0.00 0.00 91 1012.3
20260502060502 48 231 3.0 11.0 0.00 0.00 0.00 92 1012.3
20260502060013 48 251 4.0 11.0 0.00 0.00 0.00 91 1012.3
20260502060002 48 247 5.0 11.0 0.00 0.00 0.00 92 1012.9
20260502055503 48 245 3.0 12.0 0.00 0.00 0.00 92 1012.3
20260502055006 48 253 4.0 12.0 0.00 0.00 0.00 92 1012.4
20260502054510 48 279 4.0 11.0 0.00 0.00 0.00 92 1012.4
20260502054002 48 249 4.0 10.0 0.00 0.00 0.00 92 1012.4
20260502053502 48 271 3.0 11.0 0.00 0.00 0.00 92 1012.5
20260502053011 48 269 3.0 11.0 0.00 0.00 0.00 92 1012.5
20260502052506 48 252 3.0 8.0 0.00 0.00 0.00 92 1012.5
20260502052005 48 245 1.0 7.0 0.00 0.00 0.00 92 1012.4
20260502051514 48 274 3.0 7.0 0.00 0.00 0.00 92 1012.5
20260502051003 48 281 3.0 7.0 0.00 0.00 0.00 93 1012.6
20260502050503 48 245 2.0 8.0 0.00 0.00 0.00 92 1012.6
20260502050014 48 259 2.0 9.0 0.00 0.00 0.00 93 1012.7
20260502050002 48 256 2.0 9.0 0.00 0.00 0.00 93 1013.2
20260502045503 48 252 3.0 10.0 0.00 0.00 0.00 93 1012.7
20260502045004 48 209 4.0 10.0 0.00 0.00 0.00 93 1012.9
20260502044513 48 247 3.0 8.0 0.00 0.00 0.00 93 1012.9
20260502044004 48 243 4.0 8.0 0.00 0.00 0.00 93 1013.0
20260502043503 48 256 3.0 9.0 0.00 0.00 0.00 92 1013.0
20260502043011 48 224 3.0 10.0 0.00 0.00 0.00 92 1013.0
20260502042503 48 219 4.0 10.0 0.00 0.00 0.00 92 1012.9
20260502042007 48 229 2.0 7.0 0.00 0.00 0.00 92 1012.9
20260502041512 48 229 2.0 8.0 0.00 0.00 0.00 92 1012.9
20260502041002 48 205 3.0 8.0 0.00 0.00 0.00 92 1012.8
20260502040507 48 230 2.0 9.0 0.00 0.00 0.00 92 1012.8
20260502040016 48 234 4.0 9.0 0.00 0.00 0.00 92 1012.8
20260502040007 48 236 4.0 10.0 0.00 0.00 0.00 92 1013.5
20260502035505 48 234 3.0 9.0 0.00 0.00 0.00 92 1012.8
20260502035004 48 238 3.0 9.0 0.00 0.00 0.00 92 1012.9
20260502034515 48 271 4.0 9.0 0.00 0.00 0.00 91 1012.9
20260502034502 48 267 4.0 9.0 0.00 0.00 0.00 92 1013.6